Location: Fosso Corella
(43.9167°N, 11.5667°E)
Time: 10:35:45
(UTC+00:00)

STARLINK-60 - Pass Details

Date: 07 June 2020
Orbit: 383 x 390 km, 53.0° (Epoch: 07 July)

Event Time Altitude Azimuth Distance (km) Brightness Sun altitude
Rises 00:32:41 0° 307° (NW) 2,275 7.0 -20.8°
Reaches altitude 10° 00:34:48 10° 314° (NW) 1,421 6.0 -20.7°
Maximum altitude 00:37:51 42° 28° (NNE) 569 4.2 -20.5°
Drops below altitude 10° 00:40:54 10° 101° (E) 1,425 5.8 -20.3°
Sets 00:43:02 0° 109° (ESE) 2,282 6.8 -20.2°
